Stations météo

réclame
Mon MeteoGroup
Kolmaardenstroemsfors, Suède (2558): Température de l'air & dewpoint: 12.12.2017 06:00:00 - 18.12.2017 06:00:00 (CET)Kolmaardenstroemsfors, Suède (2558): Vitesse du vent & gusts: 12.12.2017 06:00:00 - 18.12.2017 06:00:00 (CET)Kolmaardenstroemsfors, Suède (2558): Direction du vent: 12.12.2017 06:00:00 - 18.12.2017 06:00:00 (CET)Kolmaardenstroemsfors, Suède (2558): reduced air pressure: 12.12.2017 06:00:00 - 18.12.2017 06:00:00 (CET)Kolmaardenstroemsfors, Suède (2558): visibility: 12.12.2017 06:00:00 - 18.12.2017 06:00:00 (CET)Kolmaardenstroemsfors, Suède (2558): Quantités de précipitations: 12.12.2017 06:00:00 - 18.12.2017 06:00:00 (CET)
Date & Time tt [°C] td [°C] ff [km/h] ff [knt] fx [km/h] fx [knt] dd ppp [hPa] vv [km] rr [mm]
18.12.2017 06:00:00 -5,9 -6,7 7 4 14 8 SSW 1018,7 15 0,0
18.12.2017 05:00:00 -6,0 -6,8 6 4 14 8 SSW 1018,4 16 0,0
18.12.2017 04:00:00 -6,2 -7,0 7 4 14 7 SSW 1018,2 13 0,0
18.12.2017 03:00:00 -6,0 -6,8 6 3 14 7 SSW 1017,9 19 0,0
18.12.2017 02:00:00 -6,1 -6,9 8 4 15 8 SW 1017,9 23 0,0
18.12.2017 01:00:00 -6,3 -7,1 8 4 15 8 SW 1017,7 28 0,0
18.12.2017 00:00:00 -6,1 -6,9 8 4 14 8 SW 1017,6 28 0,0
17.12.2017 23:00:00 -6,0 -6,8 7 4 14 8 SW 1017,5 17 0,0
17.12.2017 22:00:00 -5,0 -5,7 8 4 14 8 SW 1017,1 10 0,0
17.12.2017 21:00:00 -4,5 -5,0 5 3 14 7 SW 1016,9 8 0,0
17.12.2017 20:00:00 -4,6 -5,1 6 3 17 9 SW 1016,4 8 0,0
17.12.2017 19:00:00 -4,1 -4,8 8 4 17 9 WSW 1016,2 14 0,0
17.12.2017 18:00:00 -3,9 -4,4 8 4 17 9 WSW 1015,8 15 0,0
17.12.2017 17:00:00 -3,6 -4,1 9 5 16 9 WSW 1015,5 8 0,1
17.12.2017 16:00:00 -4,7 -5,4 6 3 16 8 WSW 1015,1 45 0,0
17.12.2017 15:00:00 -4,4 -5,5 8 4 16 9 W 1014,8 50 0,0
17.12.2017 14:00:00 -4,0 -5,5 9 5 16 9 W 1014,6 50 0,0
17.12.2017 13:00:00 -3,9 -5,6 8 4 15 8 W 1014,4 50 0,0
17.12.2017 12:00:00 -4,3 -5,8 6 3 15 8 WNW 1014,3 50 0,0
17.12.2017 11:00:00 -5,6 -6,8 5 3 16 8 W 1014,2 50 0,0
17.12.2017 10:00:00 -6,7 -7,8 6 4 16 9 WNW 1014,2 50 0,0
17.12.2017 09:00:00 -7,1 -8,2 7 4 16 9 NW 1013,4 50 0,0
17.12.2017 08:00:00 -6,8 -7,6 7 4 16 9 NW 1012,8 50 0,0
17.12.2017 07:00:00 -6,1 -6,9 9 5 19 10 NW 1012,3 50 0,0
17.12.2017 06:00:00 -5,3 -6,1 8 5 20 11 NNW 1011,6 48 0,0
17.12.2017 05:00:00 -4,3 -5,0 8 4 20 11 NNW 1010,9 29 0,0
17.12.2017 04:00:00 -3,4 -4,1 9 5 22 12 NNW 1010,4 23 0,0
17.12.2017 03:00:00 -2,9 -3,6 8 5 23 13 N 1009,6 38 0,0
17.12.2017 02:00:00 -2,3 -2,9 10 5 33 18 N 1008,9 40 0,0
17.12.2017 01:00:00 -1,8 -2,4 14 7 33 18 N 1008,1 29 0,0
17.12.2017 00:00:00 -1,2 -1,5 10 5 31 17 N 1007,3 20 0,0
16.12.2017 23:00:00 -0,9 -1,2 12 6 31 17 N 1006,4 19 0,0
16.12.2017 22:00:00 -0,7 -1,0 12 6 28 15 N 1005,6 11 0,0
16.12.2017 21:00:00 -0,4 -0,5 13 7 27 15 NNE 1004,9 3,4 0,0
16.12.2017 20:00:00 -0,2 -0,3 12 7 28 15 NNE 1003,9 8 0,0
16.12.2017 19:00:00 -0,1 -0,2 14 7 28 15 NNE 1002,9 2,2 0,2
16.12.2017 18:00:00 -0,1 -0,4 11 6 23 12 NNE 1002,2 2,8 0,2
16.12.2017 17:00:00 -0,5 -0,8 6 4 11 6 N 1001,4 2,5 0,2
16.12.2017 16:00:00 -0,5 -0,9 5 3 10 5 NNW 1000,7 3,4 0,2
16.12.2017 15:00:00 -0,5 -1,1 4 2 8 4 NNW 1000,0 1,9 0,1
16.12.2017 14:00:00 -0,2 -0,9 3 2 9 5 NNW 999,3 9 0,1
16.12.2017 13:00:00 -0,1 -0,8 4 2 10 5 NW 998,8 43 0,0
16.12.2017 12:00:00 -0,3 -0,9 5 3 10 5 WNW 998,2 28 0,0
16.12.2017 11:00:00 -0,3 -0,7 4 2 12 6 WNW 998,0 15 0,0
16.12.2017 10:00:00 -0,9 -1,2 4 2 12 6 W 997,4 10 0,0
16.12.2017 09:00:00 -1,2 -1,5 6 3 12 7 W 996,7 10 0,0
16.12.2017 08:00:00 -1,3 -1,6 5 3 13 7 WSW 996,1 3,8 0,0
16.12.2017 07:00:00 -1,0 -1,4 6 3 12 6 SW 995,7 9 0,0
16.12.2017 06:00:00 -1,3 -1,9 4 2 12 6 WSW 995,3 40 0,0
16.12.2017 05:00:00 -1,0 -1,7 5 3 19 10 W 994,9 42 0,0
16.12.2017 04:00:00 -1,0 -2,1 7 4 20 11 W 994,4 50 0,0
16.12.2017 03:00:00 -0,8 -1,6 10 5 20 11 W 993,8 50 0,0
16.12.2017 02:00:00 -0,9 -1,5 7 4 21 11 W 993,7 37 0,0
16.12.2017 01:00:00 -0,9 -1,6 9 5 21 11 W 993,3 50 0,0
16.12.2017 00:00:00 -0,8 -1,2 8 4 28 15 WSW 993,0 23 0,0
15.12.2017 23:00:00 -0,7 -1,3 11 6 28 15 W 992,2 45 0,0
15.12.2017 22:00:00 -0,3 -0,6 11 6 27 14 W 991,6 26 0,0
15.12.2017 21:00:00 0,0 -0,3 8 5 21 12 W 991,3 13 0,0
15.12.2017 20:00:00 0,1 -0,2 11 6 21 12 W 990,6 11 0,0
15.12.2017 19:00:00 0,1 0,0 9 5 22 12 W 989,8 11 0,0
15.12.2017 18:00:00 0,1 0,0 9 5 23 12 W 989,1 9 0,0
15.12.2017 17:00:00 0,1 0,0 11 6 24 13 WNW 988,5 8 0,1
15.12.2017 16:00:00 0,2 0,1 10 6 24 13 WNW 987,8 6 0,1
15.12.2017 15:00:00 0,1 0,0 10 5 25 13 W 986,9 6 1,2
15.12.2017 14:00:00 0,1 0,0 10 6 25 13 WNW 986,0 10 0,2
15.12.2017 13:00:00 0,1 0,0 10 5 21 11 W 985,4 6 0,0
15.12.2017 12:00:00 0,1 0,0 8 4 21 11 WNW 984,9 3,1 0,0
15.12.2017 11:00:00 0,1 0,0 7 4 17 9 WNW 984,3 3,9 0,0
15.12.2017 10:00:00 0,1 0,0 8 4 18 10 WNW 983,6 3,1 0,0
15.12.2017 09:00:00 0,0 -0,1 7 4 20 11 WNW 982,9 1,6 0,0
15.12.2017 08:00:00 0,0 -0,1 9 5 20 11 NW 982,1 4,2 0,1
15.12.2017 07:00:00 0,0 -0,1 9 5 20 11 NW 981,5 1,9 0,2
15.12.2017 06:00:00 0,0 -0,1 9 5 20 11 NW 980,8 2,2 0,7
15.12.2017 05:00:00 0,0 -0,1 10 5 21 11 NW 980,4 1,5 0,5
15.12.2017 04:00:00 0,0 -0,1 9 5 21 11 NW 979,9 2,8 0,3
15.12.2017 03:00:00 0,1 0,0 11 6 20 11 NW 979,7 2,0 0,3
15.12.2017 02:00:00 0,3 0,2 8 4 20 11 NNW 979,4 2,0 0,1
15.12.2017 01:00:00 0,6 0,5 8 5 24 13 N 979,0 3,0 0,0
15.12.2017 00:00:00 0,7 0,6 11 6 25 13 N 978,8 3,5 0,0
14.12.2017 23:00:00 0,7 0,6 12 7 25 13 N 978,5 2,4 0,1
14.12.2017 22:00:00 0,5 0,4 9 5 23 12 N 978,6 2,1 0,4
14.12.2017 21:00:00 0,5 0,4 9 5 21 11 N 978,7 1,4 0,3
14.12.2017 20:00:00 0,7 0,6 8 4 21 11 NNE 978,9 1,0 0,2
14.12.2017 19:00:00 0,7 0,6 7 4 18 10 NNE 979,3 1,2 0,5
14.12.2017 18:00:00 1,0 0,9 6 3 23 12 ENE 979,7 1,2 0,3
14.12.2017 17:00:00 1,3 1,2 8 4 23 12 E 980,1 2,4 0,3
14.12.2017 16:00:00 1,0 0,9 8 4 19 10 E 980,5 2,3 0,2
14.12.2017 15:00:00 1,2 1,1 7 4 18 10 E 980,9 1,6 0,0
14.12.2017 14:00:00 1,0 0,9 6 4 19 10 E 981,3 1,8 0,1
14.12.2017 13:00:00 1,0 0,9 8 4 24 13 ESE 981,6 2,6 0,0
14.12.2017 12:00:00 0,8 0,7 9 5 24 13 SE 982,3 2,6 0,1
14.12.2017 11:00:00 0,8 0,7 11 6 25 14 SE 982,8 2,8 0,1
14.12.2017 10:00:00 0,6 0,5 10 5 25 14 SE 983,2 - 0,2
14.12.2017 09:00:00 0,5 0,4 11 6 27 15 SE 983,5 1,8 0,3
14.12.2017 08:00:00 0,5 0,4 11 6 29 16 SSE 983,7 1,6 0,3
14.12.2017 07:00:00 0,4 0,3 11 6 29 16 SE 984,2 1,2 0,8
14.12.2017 06:00:00 0,6 0,5 12 7 30 16 SSE 984,7 3,8 0,4
14.12.2017 05:00:00 0,5 0,4 13 7 30 16 SSE 985,3 1,6 0,8
14.12.2017 04:00:00 0,7 0,4 14 7 34 19 SSE 986,0 3,8 0,8
14.12.2017 03:00:00 0,7 0,4 14 8 34 19 SSE 987,0 3,9 0,4
14.12.2017 02:00:00 0,7 0,6 14 8 30 16 SSE 987,7 13 0,0
14.12.2017 01:00:00 0,1 0,0 14 8 32 17 SSE 988,7 2,1 0,2
14.12.2017 00:00:00 0,2 0,1 13 7 32 17 SSE 989,5 1,7 0,1
13.12.2017 23:00:00 0,2 0,1 14 7 32 17 S 990,3 2,5 0,1
13.12.2017 22:00:00 0,1 -0,2 14 7 32 17 S 991,1 2,6 0,6
13.12.2017 21:00:00 0,3 -0,4 13 7 31 17 S 991,8 10 0,0
13.12.2017 20:00:00 0,2 -0,8 15 8 31 17 S 992,5 18 0,0
13.12.2017 19:00:00 -0,2 -1,0 13 7 31 17 S 993,4 14 1,3
13.12.2017 18:00:00 -0,3 -1,2 14 7 29 16 S 994,1 13 0,0
13.12.2017 17:00:00 -0,2 -1,1 15 8 31 17 S 994,8 15 0,0
13.12.2017 16:00:00 0,0 -0,9 13 7 33 18 S 995,7 13 0,0
13.12.2017 15:00:00 - - - - - - - - - -
13.12.2017 14:00:00 - - - - - - - - - -
13.12.2017 13:00:00 0,9 0,4 13 7 30 16 SSW 996,6 14 0,0
13.12.2017 12:00:00 0,7 0,1 11 6 30 16 SSW 997,0 14 0,0
13.12.2017 11:00:00 0,5 0,2 13 7 29 15 SW 997,2 13 0,0
13.12.2017 10:00:00 -0,6 -0,9 8 5 17 9 SSW 997,5 3,9 0,0
13.12.2017 09:00:00 -1,7 -2,0 7 4 17 9 S 997,6 3,0 0,5
13.12.2017 08:00:00 -2,7 -3,1 7 4 13 7 S 997,6 0,8 0,5
13.12.2017 07:00:00 -3,7 -4,2 5 3 13 7 S 998,0 7 0,1
13.12.2017 06:00:00 -4,7 -5,4 6 3 18 10 SSW 998,2 23 0,0
13.12.2017 05:00:00 -5,2 -5,9 8 4 19 10 SW 998,3 18 0,0
13.12.2017 04:00:00 -4,8 -5,5 9 5 24 13 SW 998,7 18 0,0
13.12.2017 03:00:00 -3,9 -4,7 11 6 26 14 SW 998,7 35 0,0
13.12.2017 02:00:00 -3,3 -4,4 12 6 26 14 W 998,7 50 0,0
13.12.2017 01:00:00 -3,4 -4,4 13 7 26 14 WSW 998,0 50 0,0
13.12.2017 00:00:00 -4,7 -5,7 10 5 28 15 W 997,6 50 0,0
12.12.2017 23:00:00 -4,5 -5,3 11 6 28 15 W 996,9 50 0,0
12.12.2017 22:00:00 -4,3 -5,0 11 6 29 16 W 996,1 50 0,0
12.12.2017 21:00:00 -3,5 -4,3 12 6 36 20 WNW 995,4 50 0,0
12.12.2017 20:00:00 -2,6 -3,4 15 8 36 20 NW 994,5 36 0,0
12.12.2017 19:00:00 -2,1 -2,8 17 9 36 20 NW 993,4 36 0,0
12.12.2017 18:00:00 -1,6 -2,0 16 9 39 21 NW 992,4 7 0,0
12.12.2017 17:00:00 -1,4 -1,8 16 9 40 21 NNW 990,9 6 0,0
12.12.2017 16:00:00 -1,0 -1,3 18 10 40 22 NNW 989,3 3,5 0,0
12.12.2017 15:00:00 -0,8 -1,1 18 10 40 22 NNW 987,9 4,6 0,0
12.12.2017 14:00:00 -0,5 -0,8 16 8 36 19 NNW 987,0 2,5 0,0
12.12.2017 13:00:00 -0,4 -0,7 16 8 34 18 NNW 986,1 1,4 0,1
12.12.2017 12:00:00 -0,4 -0,5 13 7 29 16 N 985,9 7 0,0
12.12.2017 11:00:00 -0,5 -0,6 13 7 26 14 N 986,4 4,3 0,1
12.12.2017 10:00:00 -0,6 -0,7 13 7 30 16 N 986,4 3,1 0,1
12.12.2017 09:00:00 -0,7 -0,8 13 7 31 17 N 986,5 2,8 0,1
12.12.2017 08:00:00 -0,8 -1,1 15 8 31 17 N 986,8 2,2 0,4
12.12.2017 07:00:00 -0,8 -1,1 14 8 34 18 N 987,2 1,3 0,5
12.12.2017 06:00:00 -0,9 -1,2 15 8 34 18 N 987,8 1,2 1,0

tt = Température de l'air
td = dewpoint
ff = Vitesse du vent
fx = gusts
dd = Direction du vent
ppp = reduced air pressure
vv = visibility
rr = Quantités de précipitations

stations d'obs. à proximité